TimeCEST,TemperatureF,Dew PointF,Humidity,Sea Level PressureIn,VisibilityMPH,Wind Direction,Wind SpeedMPH,Gust SpeedMPH,PrecipitationIn,Events,Conditions,WindDirDegrees,DateUTC
5:30 AM,44.6,42.8,93,30.01,6.2,Calm,Calm,-,N/A,,Partly Cloudy,0,2012-10-13 03:30:00
6:00 AM,44.6,42.8,93,30.04,6.2,Calm,Calm,-,N/A,,Partly Cloudy,0,2012-10-13 04:00:00
7:00 AM,42.8,42.8,100,30.01,6.2,Calm,Calm,-,N/A,,Partly Cloudy,0,2012-10-13 05:00:00
7:30 AM,42.8,42.8,100,30.01,6.2,Calm,Calm,-,N/A,,Partly Cloudy,0,2012-10-13 05:30:00
8:00 AM,41.0,41.0,100,30.01,6.2,Variable,1.2,-,N/A,,Partly Cloudy,0,2012-10-13 06:00:00
8:30 AM,42.8,42.8,100,30.01,6.2,ENE,1.2,-,N/A,,Partly Cloudy,70,2012-10-13 06:30:00
9:00 AM,42.8,42.8,100,30.01,6.2,Calm,Calm,-,N/A,,Partly Cloudy,0,2012-10-13 07:00:00
9:30 AM,44.6,42.8,93,30.04,6.2,Calm,Calm,-,N/A,,Partly Cloudy,0,2012-10-13 07:30:00
10:00 AM,48.2,44.6,87,30.04,6.2,Calm,Calm,-,N/A,,Partly Cloudy,0,2012-10-13 08:00:00
10:30 AM,50.0,44.6,82,30.04,6.2,Calm,Calm,-,N/A,,Partly Cloudy,0,2012-10-13 08:30:00
11:00 AM,53.6,46.4,77,30.04,6.2,Calm,Calm,-,N/A,,Partly Cloudy,0,2012-10-13 09:00:00
12:30 PM,59.0,46.4,63,30.04,6.2,NW,1.2,-,N/A,,Partly Cloudy,310,2012-10-13 10:30:00
1:00 PM,60.8,46.4,59,30.04,6.2,WNW,1.2,-,N/A,,Partly Cloudy,300,2012-10-13 11:00:00
1:30 PM,62.6,41.0,45,30.01,6.2,NNW,8.1,-,N/A,,Partly Cloudy,330,2012-10-13 11:30:00
2:00 PM,64.4,41.0,42,30.01,6.2,NW,12.7,-,N/A,,Scattered Clouds,320,2012-10-13 12:00:00
2:30 PM,64.4,41.0,42,30.01,6.2,NNW,9.2,20.7,N/A,,Scattered Clouds,330,2012-10-13 12:30:00
3:00 PM,64.4,41.0,42,30.01,6.2,NNW,12.7,-,N/A,,Scattered Clouds,330,2012-10-13 13:00:00
3:30 PM,64.4,39.2,40,30.01,6.2,NW,9.2,-,N/A,,Scattered Clouds,320,2012-10-13 13:30:00
4:00 PM,64.4,39.2,40,29.98,6.2,NNW,10.4,-,N/A,,Scattered Clouds,330,2012-10-13 14:00:00
4:30 PM,64.4,37.4,37,29.98,6.2,North,8.1,-,N/A,,Partly Cloudy,350,2012-10-13 14:30:00
5:00 PM,64.4,39.2,40,29.98,6.2,North,5.8,-,N/A,,Partly Cloudy,350,2012-10-13 15:00:00
5:30 PM,62.6,39.2,42,29.95,6.2,NNE,4.6,-,N/A,,Partly Cloudy,30,2012-10-13 15:30:00
6:00 PM,62.6,39.2,42,29.95,6.2,NNW,3.5,-,N/A,,Partly Cloudy,340,2012-10-13 16:00:00
6:30 PM,62.6,42.8,48,29.95,6.2,NNE,4.6,-,N/A,,Partly Cloudy,20,2012-10-13 16:30:00
7:00 PM,60.8,42.8,52,29.95,6.2,NNE,6.9,-,N/A,,Partly Cloudy,30,2012-10-13 17:00:00
7:30 PM,59.0,44.6,59,29.95,6.2,NE,3.5,-,N/A,,Partly Cloudy,40,2012-10-13 17:30:00
8:00 PM,57.2,44.6,63,29.95,6.2,ENE,2.3,-,N/A,,Partly Cloudy,60,2012-10-13 18:00:00
8:30 PM,55.4,44.6,67,29.95,6.2,East,1.2,-,N/A,,Partly Cloudy,80,2012-10-13 18:30:00
9:00 PM,55.4,44.6,67,29.95,6.2,Calm,Calm,-,N/A,,Partly Cloudy,0,2012-10-13 19:00:00
9:30 PM,53.6,44.6,72,29.95,6.2,Calm,Calm,-,N/A,,Partly Cloudy,0,2012-10-13 19:30:00
10:00 PM,53.6,44.6,72,29.95,6.2,Calm,Calm,-,N/A,,Partly Cloudy,0,2012-10-13 20:00:00
10:30 PM,53.6,44.6,72,29.95,6.2,Calm,Calm,-,N/A,,Partly Cloudy,0,2012-10-13 20:30:00
11:00 PM,51.8,44.6,76,29.95,6.2,Variable,1.2,-,N/A,,Partly Cloudy,0,2012-10-13 21:00:00